Telfer, Australia

2:35 PM AWST on April 28, 2017 (GMT +0800)
Telfer

Weather History for YTEF - March, 2013

Change the Weather History Date:

Thursday, March 7, 2013

  Actual Average Record
Temperature  
Mean Temperature 92 °F -  
Max Temperature 105 °F - - ()
Min Temperature 79 °F - - ()
Cooling Degree Days 27    
Growing Degree Days 42 (Base 50)    
Moisture  
Dew Point 66 °F    
Average Humidity 44    
Maximum Humidity 89    
Minimum Humidity 12    
Precipitation  
Precipitation 0.00 in - - ()
Sea Level Pressure  
Sea Level Pressure 29.71 in    
Wind  
Wind Speed 5 mph ()    
Max Wind Speed 12 mph    
Max Gust Speed -    
T = Trace of Precipitation, MM = Missing Value Source: Averaged Metar Reports

Daily Weather History Graph

Daily Weather History Graph

Search for Another Location

Airport or City:

Trip Planner

Search our weather history database for the weather conditions in past years. The results will help you decide how hot, cold, wet, or windy it might be!

Date:

Astronomy

Mar. 07, 2013 Rise Set
Actual Time 5:50 AM AWST 6:13 PM AWST
Civil Twilight 5:27 AM AWST 6:36 PM AWST
Nautical Twilight 5:01 AM AWST 7:02 PM AWST
Astronomical Twilight 4:35 AM AWST 7:28 PM AWST
Moon 1:03 AM AWST (3/7) 2:34 PM AWST (3/7)
Length of Visible Light 13h 08m
Length of Day
12h 23m
Waning Crescent, 25% of the Moon is Illuminated
Mar 7
Waning Crescent
Mar 12
New
Mar 20
First Quarter
Mar 27
Full
Apr 3
Last Quarter

Hourly Weather History & Observations

Time (AWST) Temp. Heat Index Dew Point Humidity Pressure Visibility Wind Dir Wind Speed Gust Speed Precip Events Conditions
12:00 AM 89 °F - 59 °F 26% 29.66 in - Calm Calm - -  
12:00 AM 89.6 °F 88.9 °F 59.0 °F 36% 29.71 in - Calm Calm - N/A   Unknown
1:00 AM 86.0 °F 86.6 °F 62.6 °F 45% 29.68 in - WNW 1.2 mph - N/A   Unknown
2:00 AM 83 °F - 62 °F 38% 29.65 in - SE 1.2 mph - -  
2:00 AM 82.4 °F 83.4 °F 62.6 °F 51% 29.71 in - SE 1.2 mph - N/A   Unknown
3:00 AM 81 °F - 63 °F 44% 29.65 in - NNW 3.5 mph - -  
3:00 AM 80.6 °F 81.8 °F 62.6 °F 54% 29.71 in - NNW 3.5 mph - N/A   Unknown
4:00 AM 80.6 °F 82.3 °F 64.4 °F 58% 29.71 in - NW 5.8 mph - N/A   Unknown
5:00 AM 81 °F - 77 °F 83% 29.67 in - NNW 9.2 mph - -  
5:00 AM 80.6 °F 87.1 °F 77.0 °F 89% 29.71 in - NNW 9.2 mph - N/A   Unknown
6:00 AM 80 °F - 74 °F 77% 29.69 in - NNW 9.2 mph - -  
6:00 AM 78.8 °F - 73.4 °F 83% 29.74 in - NNW 9.2 mph - N/A   Unknown
7:00 AM 82.4 °F 89.5 °F 75.2 °F 79% 29.77 in - NNW 11.5 mph - N/A   Unknown
8:00 AM 85 °F - 74 °F 62% 29.74 in - NNW 9.2 mph - -  
8:00 AM 84.2 °F 90.9 °F 73.4 °F 70% 29.80 in - NNW 9.2 mph - N/A   Unknown
9:00 AM 88 °F - 74 °F 54% 29.74 in - North 8.1 mph - -  
9:00 AM 87.8 °F 95.6 °F 73.4 °F 62% 29.80 in - North 8.1 mph - N/A   Unknown
10:00 AM 91.4 °F 98.4 °F 71.6 °F 52% 29.80 in - North 6.9 mph - N/A   Unknown
11:00 AM 95 °F - 70 °F 35% 29.71 in - NNW 5.8 mph - -  
11:00 AM 95.0 °F 101.3 °F 69.8 °F 44% 29.77 in - NNW 5.8 mph - N/A   Unknown
12:00 PM 100 °F - 70 °F 28% 29.69 in - WNW 6.9 mph - -  
12:00 PM 100.4 °F 107.8 °F 69.8 °F 37% 29.74 in - WNW 6.9 mph - N/A   Unknown
1:00 PM 100.4 °F 104.9 °F 66.2 °F 33% 29.71 in - SSW 4.6 mph - N/A   Unknown
2:00 PM 103 °F - 61 °F 16% 29.63 in - WSW 8.1 mph - -  
2:00 PM 104.0 °F 105.3 °F 60.8 °F 24% 29.68 in - WSW 8.1 mph - N/A   Unknown
3:00 PM 104 °F - 55 °F 12% 29.62 in - South 8.1 mph - -  
3:00 PM 104.0 °F 102.9 °F 55.4 °F 20% 29.68 in - South 8.1 mph - N/A   Unknown
4:00 PM 104.0 °F 102.9 °F 55.4 °F 20% 29.68 in - SSW 5.8 mph - N/A   Unknown
5:00 PM 103 °F - 58 °F 14% 29.62 in - East 5.8 mph - -  
5:00 PM 102.2 °F 101.4 °F 57.2 °F 22% 29.68 in - East 5.8 mph - N/A   Unknown
6:00 PM 100 °F - 60 °F 18% 29.65 in - South 6.9 mph - -  
6:00 PM 100.4 °F 101.3 °F 60.8 °F 27% 29.71 in - South 6.9 mph - N/A   Unknown
7:00 PM 96.8 °F 98.0 °F 62.6 °F 32% 29.74 in - SSE 4.6 mph - N/A   Unknown
8:00 PM 92 °F - 62 °F 27% 29.70 in - East 6.9 mph - -  
8:00 PM 91.4 °F 92.1 °F 62.6 °F 38% 29.74 in - East 6.9 mph - N/A   Unknown
9:00 PM 89 °F - 68 °F 41% 29.74 in - ENE 5.8 mph - -  
9:00 PM 89.6 °F 93.4 °F 68.0 °F 49% 29.80 in - ENE 5.8 mph - N/A   Unknown
10:00 PM 87.8 °F 90.4 °F 66.2 °F 49% 29.80 in - NNE 4.6 mph - N/A   Unknown
11:00 PM 88 °F - 68 °F 42% 29.72 in - North 4.6 mph - -  
11:00 PM 87.8 °F 91.4 °F 68.0 °F 52% 29.77 in - North 4.6 mph - N/A   Unknown